Flag for South Africa Weather past 2 weeks in Stellenbosch, South Africa

Now
64 °F

Passing clouds.


Feels Like: 64 °F
Forecast: 47 / 72 °F
Wind: 17 mph from Southeast

Location: Cape Town International Airport


UV Index: 3 (Moderate)

Visibility: N/A


Pressure: 30.15 "Hg

Humidity: 56%

Dew point: 48 °F

Location of StellenboschLocation

Historic Weather in Stellenbosch

°F

Stellenbosch temperature yesterday

Maximum temperature yesterday: 72 °F (at 12:00 PM)
Minimum temperature yesterday: 59 °F (at 10:00 PM)
Average temperature yesterday: 65 °F

Past Weeks' High & Low Weather Summary

 TemperatureHumidityPressure
High97 °F (Apr 11, 1:00 PM)94% (Apr 8, 8:00 PM)30.18 "Hg (Apr 8, 8:00 PM)
Low50 °F (Apr 16, 6:00 AM)22% (Apr 12, 1:00 PM)29.83 "Hg (Apr 21, 6:00 PM)
Average68 °F66%30.04 "Hg
* Reported Apr 8 4:00 PM — Apr 23 4:00 PM, Stellenbosch, Weather by CustomWeather, © 2014

Note: Actual official high and low records may vary slightly from our data, if they occured in-between our weather recording intervals... More about our weather records

Advertising

Historic Weather Conditions — Data for Previous 24 hours

 ConditionsComfort  
Time TempWeatherWind HumidityBarometerVisibility
4:00 PM
Apr 23
66 °FPassing clouds.16 mph46%30.12 "HgN/A
3:00 PM66 °FScattered clouds.17 mph46%30.12 "HgN/A
2:00 PM66 °FPassing clouds.18 mph46%30.12 "HgN/A
1:00 PM66 °FPassing clouds.17 mph46%30.15 "HgN/A
12:00 PM66 °FPassing clouds.20 mph49%30.15 "HgN/A
11:00 AM64 °FPassing clouds.20 mph56%30.15 "HgN/A
10:00 AM63 °FPassing clouds.23 mph59%30.15 "HgN/A
9:00 AM61 °FPassing clouds.20 mph63%30.12 "HgN/A
8:00 AM57 °FPassing clouds.13 mph82%30.09 "HgN/A
7:00 AM55 °FPassing clouds.9 mph82%30.09 "HgN/A
6:00 AM55 °FPassing clouds.9 mph82%30.07 "HgN/A
5:00 AM55 °FPassing clouds.12 mph82%30.07 "HgN/A
4:00 AM57 °FPassing clouds.18 mph77%30.07 "HgN/A
3:00 AM59 °FPassing clouds.13 mph63%30.07 "HgN/A
2:00 AM57 °FPassing clouds.8 mph72%30.07 "HgN/A
1:00 AM61 °FPassing clouds.13 mph63%30.07 "HgN/A
12:00 AM61 °FPassing clouds.14 mph63%30.07 "HgN/A
11:00 PM
Apr 22
59 °FPassing clouds.10 mph72%30.07 "HgN/A
10:00 PM59 °FPassing clouds.9 mph68%30.07 "HgN/A
9:00 PM61 °FPassing clouds.12 mph68%30.04 "HgN/A
8:00 PM63 °FPassing clouds.16 mph64%30.04 "HgN/A
7:00 PM63 °FPassing clouds.16 mph68%30.01 "HgN/A
6:00 PM64 °FPassing clouds.22 mph64%30.01 "HgN/A
5:00 PM66 °FPassing clouds.26 mph64%29.98 "HgN/A
Weather by CustomWeather, © 2014

See weather overview